Das Wetter in  D-61279 Heinzenberg / Taunus





Wetter Minimum- & Maximum-Werte im Juni 2007

Standort: Heinzenberg / Taunus - Höhe 297 m         8 24' 1" Ost 50 21' 51" Nord
(   3-stündige Aktualisierung    letzte Aktualisierung um 19:04 am 30.06.2007  )


Messgrösse

Minimum

Maximum

Durchschnitt

Temperatur West /
Luftfeuchte West
Anklicken für Monats-Diagramm

7,8 C

04:48
01.06.2007

39 %

18:54
08.06.2007

30,6 C

18:09
08.06.2007

97 %

15:25
21.06.2007

Temp

17,2 C

Feuchte

79 %

Temperatur Ost /
Luftfeuchte Ost
Anklicken für Monats-Diagramm

7,9 C

04:53
01.06.2007

--

--
--

31,0 C

15:39
08.06.2007

--

--
--

17,6 C

--

Luftdruck Anklicken für Monats-Diagramm

996,9 hPa

08:39
26.06.2007

1022,8 hPa

02:35
03.06.2007

1012,4 hPa

Taupunkt

5,0 C

13:34
27.06.2007

20,2 C

13:45
09.06.2007

13,3 C

Windchill
( gefühlte Temperatur )

0,2 C

03:29
27.06.2007

30,5 C

17:19
08.06.2007

15,7 C

Windgeschwindigkeit /
Windrichtung
Anklicken für Monats-Diagramm

---

51,5 km/h / W

15:40
09.06.2007

7,9 km/h
W-SW

Helligkeit /
Sonnenschein
Anklicken für Monats-Diagramm
Anklicken für Monats-Diagramm

Sonnenschein:

179:01 Stunden

Max: 12:50 Std am
07.06.2007

126 klux

12:15
03.06.2007

36 klux

Solarstrahlung Anklicken für Monats-Diagramm

---

862 W/m

12:15
03.06.2007

263 W/m

Regenmenge
    Juni 2007
Anklicken für Monats-Diagramm

Insgesamt 149,7 l/m

in 50:53 Stunden
an 18 Tagen

55,9 l/m

05:20
21.06.2007

Gesamtmenge

149,7 l/m

Regen-Tage
    Juni 2007
Anklicken für Monats-Diagramm

>   0 mm/Tag

>   2 mm/Tag

>   5 mm/Tag

> 10 mm/Tag

> 20 mm/Tag

18 Tage     
12 Tage     
8 Tage     
4 Tage     
  1 Tag     

Eisige Tage Juni 2007 / 2006

Tmin ≤ -10C     

0 Tage

/

0 Tage

Eistage Juni 2007 / 2006

Tmax <     0C     

0 Tage

/

0 Tage

Frosttage Juni 2007 / 2006

Tmin ≤     0C     

0 Tage

/

0 Tage

Kalte Tage Juni 2007 / 2006

Tmax <   10C     

0 Tage

/

0 Tage

Warme Tage Juni 2007 / 2006

Tmax ≥   20C     

23 Tage

/

25 Tage

Sommertage Juni 2007 / 2006

Tmax ≥   25C     

11 Tage

/

21 Tage

Heisse Tage Juni 2007 / 2006

Tmax ≥   30C     

2 Tage

/

8 Tage


Monatsdiagramm Juni 2007

Die Kurven zeigen den Durchschnittswert des jeweiligen Tages an


Wetter-Monatsübersicht Juni 2007
Datum
  Temperatur
   Luftdruck
   Wind
  Regen
   Luftfeuchte
   Helligkeit

Sonnen-
schein


Temp.

Min.
Temp.

Max.
Temp.


Luftdruck

Min.
Luftdruck

Max.
Luftdruck

-Geschw.
Haupt-Richtg.

Max.
Wind

Menge /
Dauer


Feuchte

Min.
Feuchte

Max.
Feuchte


Helligkeit

Max.
Helligkeit

1.
Juni
13,6 C7,8 C
04:48
20,0 C
17:18
1014,2 hPa1012,7 hPa
00:03
1018,6 hPa
23:59
2,5 km/h
W-NW
17,1 km/h
16:58  
0,3 l/m
5 Minuten
82 %66 %
17:18
93 %
08:43
26,0 klux79,9 klux
11:13
1:05 Std 
2.
Juni
15,8 C9,1 C
06:14
23,3 C
15:14
1020,9 hPa1018,6 hPa
00:04
1022,6 hPa
23:55
4,8 km/h
SO
22,1 km/h
14:49  
---
78 %55 %
15:39
94 %
08:19
42,4 klux113,0 klux
14:19
6:26 Std 
3.
Juni
16,8 C11,9 C
02:35
22,5 C
16:35
1021,1 hPa1018,7 hPa
18:55
1022,8 hPa
02:35
2,1 km/h
N
14,0 km/h
16:30  
---
79 %63 %
16:45
93 %
07:50
33 klux126 klux
12:15
2:26 Std 
4.
Juni
17,6 C11,0 C
06:46
24,4 C
18:41
1019,8 hPa1018,3 hPa
18:41
1021,6 hPa
00:51
2,0 km/h
N
15,6 km/h
19:21  
---
76 %57 %
18:25
93 %
07:56
40 klux114 klux
13:31
7:50 Std 
5.
Juni
18,4 C13,1 C
05:52
25,2 C
17:37
1018,3 hPa1015,2 hPa
19:12
1020,6 hPa
03:37
2,6 km/h
N
18,8 km/h
13:47  
---
74 %56 %
17:32
91 %
08:02
43 klux110 klux
13:02
9:25 Std 
6.
Juni
19,5 C12,9 C
05:32
26,4 C
18:22
1015,3 hPa1012,9 hPa
18:22
1018,2 hPa
00:32
2,9 km/h
N-NO
19,8 km/h
13:57  
---
74 %54 %
18:52
91 %
07:47
45 klux109 klux
13:57
9:40 Std 
7.
Juni
22,3 C15,2 C
05:33
30,1 C
16:58
1013,6 hPa1011,4 hPa
16:58
1015,8 hPa
00:08
2,9 km/h
N-NO
23,1 km/h
13:38  
---
71 %48 %
16:38
90 %
07:58
50 klux108 klux
13:33
12:50 Std 
8.
Juni
22,8 C15,2 C
05:54
30,6 C
18:09
1014,8 hPa1013,4 hPa
18:09
1016,2 hPa
06:29
3,7 km/h
SO
22,5 km/h
13:49  
---
67 %39 %
18:54
90 %
07:29
50 klux99 klux
13:54
12:10 Std 
9.
Juni
18,9 C14,4 C
06:25
27,7 C
14:05
1015,7 hPa1013,8 hPa
14:05
1017,3 hPa
04:00
4,4 km/h
W
51,5 km/h
15:40  
6,4 l/m
1:55 Stunden
82 %62 %
13:55
92 %
18:15
36,1 klux103,0 klux
14:00
7:50 Std 
10.
Juni
18,7 C13,8 C
06:56
28,6 C
17:16
1014,9 hPa1011,6 hPa
17:11
1016,4 hPa
06:56
2,3 km/h
SO
22,0 km/h
18:11  
9,3 l/m
2:01 Stunden
82 %49 %
15:51
95 %
08:21
42 klux111 klux
12:56
7:55 Std 
11.
Juni
17,8 C13,2 C
03:52
24,8 C
18:57
1013,4 hPa1011,0 hPa
18:57
1015,3 hPa
00:12
1,9 km/h
W-SW
16,3 km/h
20:17  
---
85 %62 %
20:07
96 %
08:42
27 klux90 klux
16:52
3:50 Std 
12.
Juni
18,8 C14,4 C
06:23
24,8 C
16:28
1010,4 hPa1007,9 hPa
16:28
1012,9 hPa
00:48
9,2 km/h
W-NW
27,9 km/h
14:13  
---
80 %64 %
17:23
92 %
07:33
40,7 klux104,0 klux
14:03
6:10 Std 
13.
Juni
18,7 C12,2 C
05:39
25,8 C
16:39
1009,1 hPa1006,0 hPa
19:39
1011,2 hPa
02:54
5,7 km/h
W-SW
24,6 km/h
15:34  
---
73 %49 %
19:19
92 %
07:59
44 klux106 klux
14:34
9:25 Std 
14.
Juni
18,5 C13,2 C
03:40
27,9 C
14:50
1006,0 hPa1003,0 hPa
16:45
1009,0 hPa
00:40
4,1 km/h
W-SW
35,3 km/h
17:15  
17,2 l/m
1:55 Stunden
79 %47 %
14:55
94 %
23:20
35 klux109 klux
13:40
6:04 Std 
15.
Juni
16,7 C13,8 C
23:51
18,6 C
14:25
1005,0 hPa1003,5 hPa
08:30
1008,1 hPa
23:51
5,5 km/h
W-SW
26,7 km/h
18:55  
17,0 l/m
4:15 Stunden
95 %90 %
15:30
96 %
05:10
16 klux53 klux
08:15
1:25 Std 
16.
Juni
16,2 C12,9 C
06:06
20,7 C
13:56
1008,3 hPa1007,1 hPa
04:51
1010,3 hPa
23:51
14,7 km/h
W-SW
50,6 km/h
11:06  
1,8 l/m
1:30 Stunden
78 %50 %
15:11
95 %
00:01
45,5 klux118,0 klux
14:56
8:41 Std 
17.
Juni
17,6 C10,0 C
06:21
25,0 C
18:01
1008,2 hPa1005,0 hPa
19:46
1010,7 hPa
06:21
8,7 km/h
W-SW
34,6 km/h
15:26  
0,3 l/m
1:00 Stunden
72 %43 %
18:01
94 %
07:21
46 klux118 klux
14:11
8:49 Std 
18.
Juni
19,0 C15,6 C
03:37
24,6 C
16:47
1009,9 hPa1006,6 hPa
00:02
1014,9 hPa
22:53
13,3 km/h
W
49,6 km/h
13:27  
6,5 l/m
4:05 Stunden
77 %54 %
16:52
95 %
07:02
45 klux122 klux
12:42
6:50 Std 
19.
Juni
20,0 C12,3 C
05:33
29,0 C
17:33
1013,9 hPa1011,0 hPa
20:58
1016,5 hPa
07:43
1,6 km/h
O
17,6 km/h
17:53  
---
74 %48 %
17:53
93 %
08:18
49 klux110 klux
13:08
11:50 Std 
20.
Juni
21,2 C16,1 C
02:49
27,0 C
18:29
1012,1 hPa1010,8 hPa
03:29
1013,6 hPa
23:50
5,8 km/h
W
25,4 km/h
14:09  
0,8 l/m
45 Minuten
76 %61 %
18:59
87 %
05:54
37 klux112 klux
13:29
4:50 Std 
21.
Juni
16,6 C13,7 C
23:36
19,6 C
00:00
1011,9 hPa1009,7 hPa
13:00
1015,4 hPa
23:36
6,7 km/h
W
39,2 km/h
15:10  
55,9 l/m
6:15 Stunden
93 %82 %
00:00
97 %
15:25
10 klux57 klux
18:55
20 Min 
22.
Juni
14,6 C11,8 C
06:21
19,2 C
17:11
1012,0 hPa1009,6 hPa
17:36
1014,4 hPa
03:46
7,2 km/h
W-SW
28,5 km/h
17:41  
4,6 l/m
2:35 Stunden
91 %70 %
17:26
97 %
08:11
24,3 klux99,9 klux
15:56
2:35 Std 
23.
Juni
14,9 C12,3 C
04:41
20,5 C
15:46
1010,8 hPa1009,2 hPa
07:36
1014,4 hPa
23:57
14,9 km/h
W-SW
40,9 km/h
13:46  
11,4 l/m
2:41 Stunden
87 %63 %
15:51
95 %
06:26
36 klux124 klux
13:46
4:05 Std 
24.
Juni
17,0 C11,1 C
04:52
22,7 C
17:37
1013,3 hPa1009,3 hPa
20:52
1015,7 hPa
05:47
9,2 km/h
W-SW
34,2 km/h
13:07  
---
78 %60 %
15:52
94 %
06:37
40 klux114 klux
11:57
7:40 Std 
25.
Juni
15,9 C12,7 C
23:54
21,6 C
13:03
1006,1 hPa1003,8 hPa
20:03
1010,1 hPa
02:48
9,4 km/h
W-SW
40,8 km/h
13:38  
7,6 l/m
2:50 Stunden
85 %71 %
13:18
94 %
16:08
22 klux112 klux
11:43
2:05 Std 
26.
Juni
12,6 C10,4 C
22:44
15,4 C
16:24
1002,1 hPa996,9 hPa
08:39
1007,5 hPa
22:44
26,4 km/h
W
49,1 km/h
16:54  
3,6 l/m
5:15 Stunden
82 %71 %
17:04
95 %
13:19
23 klux117 klux
13:44
1:35 Std 
27.
Juni
12,1 C8,6 C
06:29
17,1 C
16:24
1008,6 hPa1007,5 hPa
00:04
1010,4 hPa
23:46
19,0 km/h
W
38,7 km/h
15:59  
0,6 l/m
3:00 Stunden
72 %50 %
13:24
89 %
06:39
40 klux118 klux
13:04
5:50 Std 
28.
Juni
13,5 C11,4 C
00:36
17,6 C
18:11
1012,1 hPa1010,2 hPa
08:56
1015,6 hPa
23:27
16,6 km/h
W-SW
43,9 km/h
12:21  
2,6 l/m
2:55 Stunden
76 %57 %
19:26
93 %
13:06
33 klux122 klux
13:16
4:15 Std 
29.
Juni
14,3 C11,2 C
00:47
17,5 C
15:12
1014,7 hPa1012,8 hPa
16:22
1015,7 hPa
00:47
11,4 km/h
W-SW
36,8 km/h
13:27  
2,9 l/m
6:01 Stunden
80 %66 %
15:07
91 %
23:48
19 klux109 klux
11:02
20 Min 
30.
Juni
16,4 C12,5 C
00:33
20,8 C
18:13
1015,6 hPa1014,5 hPa
19:13
1017,0 hPa
13:18
14,4 km/h
W-SW
36,2 km/h
12:23  
0,9 l/m
1:50 Stunden
78 %63 %
16:08
93 %
05:58
33 klux107 klux
14:28
4:45 Std 



Juni
2007

Temperatur

  

Luftdruck

  

Wind

  

Regen

  

Luftfeuchte

  

Helligkeit

Sonnen-
schein

Min

Max

Min

Max

Max

Max

Min

Max

Max

Max

17,2 C

7,8 C

04:48 Uhr
01.06.2007

30,6 C

18:09 Uhr
08.06.2007

1012,4 hPa

996,9 hPa

08:39 Uhr
26.06.2007

1022,8 hPa

02:35 Uhr
03.06.2007

7,9 km/h

W-SW

51,5 km/h

15:40 Uhr
09.06.2007

55,9 l/m

6:15 Stunden
21.06.2007

79 %

39 %

18:54 Uhr
08.06.2007

97 %

15:25 Uhr
21.06.2007

36 klux

126,0 klux

12:15 Uhr
03.06.2007

12:50 Std

am
07.06.2007

Gesamt

Gesamt

149,7 l/m

18 Tage
50:53 h

179:01 Std


Wetter-Diagramme Juni 2007     Heinzenberg / Taunus   
TemperaturLuftfeuchte
SolarstrahlungLuftdruck
HelligkeitSonnenschein
RegenmengeRegendauer
Wind-GeschwindigkeitWind-Richtung